MORDOVIA-IOT (RS50S)

Last updated on Fri Dec 19 2025 00:03:12 GMT+0000 (Coordinated Universal Time)

1 61765U 24199AG 25352.63849072 .00149862 00000+0 11689-2 0 9992 2 61765 97.3118 226.5189 0004901 146.5089 213.6484 15.71217085106817
UTC large
Height (km)
Speed (km/s)
/
Latitude / Longitude
Inclination (degrees)
Orbital Period (minutes)
Azimuth
Elevation
Range (km)
Doppler Factor

Next 0 passes for location: London (51.5072 / 0.1276)

Sorry there are no passes over London.